Waarnemingen

Advertentie
Mijn weer
Cagliari/Elmas, Italië (16560): temperatuur & dauwpunt: 08.08.2018 15:00:00 - 14.08.2018 15:00:00 (CEST)Cagliari/Elmas, Italië (16560): windsnelheid: 08.08.2018 15:00:00 - 14.08.2018 15:00:00 (CEST)Cagliari/Elmas, Italië (16560): windrichting: 08.08.2018 15:00:00 - 14.08.2018 15:00:00 (CEST)Cagliari/Elmas, Italië (16560): luchtdruk: 08.08.2018 15:00:00 - 14.08.2018 15:00:00 (CEST)Cagliari/Elmas, Italië (16560): zicht: 08.08.2018 15:00:00 - 14.08.2018 15:00:00 (CEST)Cagliari/Elmas, Italië (16560): neerslag: 08.08.2018 15:00:00 - 14.08.2018 15:00:00 (CEST)
Datum & Tijd tt [°C] td [°C] ff [km/u] ff [kn] dd ppp [hPa] vv [km] rr [mm]
14.08.2018 15:00:00 33,0 15,0 21 11 NNW - 10 -
14.08.2018 14:00:00 33,3 15,8 18 10 N 1012,2 10 -
14.08.2018 13:00:00 33,0 14,0 21 11 NW - 10 -
14.08.2018 12:00:00 31,0 17,0 21 11 NNW - 10 -
14.08.2018 11:00:00 30,3 18,9 22 12 NNW 1013,3 10 0,0
14.08.2018 10:00:00 28,0 19,0 22 12 NNW - 10 -
14.08.2018 09:00:00 - - - - - - - -
14.08.2018 08:00:00 21,8 17,4 11 6 NNW 1013,3 10 -
14.08.2018 07:00:00 21,0 19,0 11 6 NW - 10 -
14.08.2018 06:00:00 21,0 18,0 13 7 NNW - 10 -
14.08.2018 05:00:00 20,9 18,6 11 6 NNW 1012,7 10 0,0
14.08.2018 04:00:00 22,0 20,0 11 6 NNW - 10 -
14.08.2018 03:00:00 23,0 20,0 8 4 NW - 10 -
14.08.2018 02:00:00 24,0 19,8 5 3 NNW 1013,0 10 -
14.08.2018 01:00:00 25,0 20,0 11 6 N - 10 -
14.08.2018 00:00:00 26,0 20,0 11 6 NNW - 10 -
13.08.2018 23:00:00 26,7 24,2 4 2 Z 1012,8 10 0,0
13.08.2018 22:00:00 27,0 24,0 5 3 ZZO - 10 -
13.08.2018 21:00:00 27,0 23,0 8 4 Z - 10 -
13.08.2018 20:00:00 28,2 22,2 8 4 ZZO 1012,4 10 -
13.08.2018 19:00:00 29,0 24,0 15 8 ZO - 10 -
13.08.2018 18:00:00 29,0 23,0 18 10 ZZO - 10 -
13.08.2018 17:00:00 29,8 23,4 22 12 ZZO 1012,5 10 0,0
13.08.2018 16:00:00 31,0 22,0 18 10 ZZO - 10 -
13.08.2018 15:00:00 31,0 23,0 24 13 ZO - 10 -
13.08.2018 14:00:00 30,7 23,7 18 10 ZO 1013,8 10 -
13.08.2018 13:00:00 31,0 21,0 13 7 Z - 10 -
13.08.2018 12:00:00 31,0 21,0 15 8 ZZO - 10 -
13.08.2018 11:00:00 30,5 18,4 8 4 ZZO 1014,7 10 0,0
13.08.2018 10:00:00 28,0 19,0 4 2 - - 10 -
13.08.2018 09:00:00 24,0 17,0 5 3 NNW - 10 -
13.08.2018 08:00:00 22,0 17,2 8 4 NNW 1014,5 10 -
13.08.2018 07:00:00 21,0 18,0 8 4 NNW - 10 -
13.08.2018 06:00:00 21,0 18,0 5 3 N - 10 -
13.08.2018 05:00:00 21,6 18,9 5 3 NNW 1014,1 10 0,0
13.08.2018 04:00:00 22,0 19,0 8 4 NNW - 10 -
13.08.2018 03:00:00 23,0 19,0 4 2 - - 10 -
13.08.2018 02:00:00 23,9 20,0 5 3 NW 1014,9 10 -
13.08.2018 01:00:00 24,0 20,0 11 6 NW - 10 -
13.08.2018 00:00:00 25,0 18,0 9 5 NNW - 10 -
12.08.2018 23:00:00 25,8 16,9 9 5 NW 1015,8 10 0,0
12.08.2018 22:00:00 28,0 22,0 11 6 ONO - 10 -
12.08.2018 21:00:00 28,0 21,0 15 8 O - 10 -
12.08.2018 20:00:00 28,7 20,9 15 8 ZO 1014,7 10 -
12.08.2018 19:00:00 29,0 21,0 18 10 OZO - 10 -
12.08.2018 18:00:00 31,0 20,0 16 9 ZZO - 10 -
12.08.2018 17:00:00 32,0 18,6 16 9 Z 1015,4 10 0,0
12.08.2018 16:00:00 31,0 20,0 21 11 ZZO - 10 -
12.08.2018 15:00:00 32,0 23,0 18 10 ZZO - 10 -
12.08.2018 14:00:00 32,2 20,7 21 11 ZO 1016,8 10 -
12.08.2018 13:00:00 34,0 15,0 9 5 WZW - 10 -
12.08.2018 12:00:00 32,0 16,0 11 6 WNW - 10 -
12.08.2018 11:00:00 30,6 16,2 15 8 NNW 1017,7 10 0,0
12.08.2018 10:00:00 28,0 19,0 15 8 NW - 10 -
12.08.2018 09:00:00 25,0 20,0 13 7 NNW - 10 -
12.08.2018 08:00:00 22,4 19,1 13 7 NW 1018,0 10 -
12.08.2018 07:00:00 21,0 18,0 9 5 NNW - 10 -
12.08.2018 06:00:00 - - - - - - - -
12.08.2018 05:00:00 22,7 20,3 8 4 NW 1017,1 30 0,0
12.08.2018 04:00:00 23,0 20,0 11 6 NNW - 10 -
12.08.2018 03:00:00 23,0 20,0 11 6 NNW - 10 -
12.08.2018 02:00:00 24,1 19,8 13 7 NNW 1017,8 10 -
12.08.2018 01:00:00 25,0 20,0 13 7 NNW - 10 -
12.08.2018 00:00:00 26,0 20,0 16 9 NNW - 10 -
11.08.2018 23:00:00 26,4 20,0 22 12 N 1018,3 10 0,0
11.08.2018 22:00:00 28,0 18,0 18 10 N - 10 -
11.08.2018 21:00:00 29,0 17,0 9 5 N - 10 -
11.08.2018 20:00:00 31,0 15,3 18 10 N 1017,6 10 -
11.08.2018 19:00:00 31,0 22,0 13 7 ZO - 10 -
11.08.2018 18:00:00 31,0 23,0 18 10 ZO - 10 -
11.08.2018 17:00:00 30,7 23,7 22 12 ZO 1018,1 10 0,0
11.08.2018 16:00:00 33,0 23,0 15 8 Z - 10 -
11.08.2018 15:00:00 33,0 23,0 21 11 Z - 10 -
11.08.2018 14:00:00 33,2 22,4 11 6 W 1018,9 10 -
11.08.2018 13:00:00 - - - - - - - -
11.08.2018 12:00:00 32,0 19,0 9 5 WNW - 10 -
11.08.2018 11:00:00 29,5 21,4 11 6 WNW 1020,4 10 0,0
11.08.2018 10:00:00 26,0 21,0 11 6 WNW - 10 -
11.08.2018 09:00:00 25,0 21,0 11 6 NW - 10 -
11.08.2018 08:00:00 23,7 20,5 11 6 NNW 1020,1 10 -
11.08.2018 07:00:00 23,0 21,0 9 5 NNW - 10 -
11.08.2018 06:00:00 23,0 21,0 11 6 NNW - 10 -
11.08.2018 05:00:00 23,0 20,3 9 5 NW 1019,7 10 0,0
11.08.2018 04:00:00 24,0 19,0 9 5 N - 10 -
11.08.2018 03:00:00 24,0 21,0 5 3 NNW - 10 -
11.08.2018 02:00:00 25,9 21,2 4 2 - 1020,8 10 -
11.08.2018 01:00:00 27,0 22,0 4 2 - - 10 -
11.08.2018 00:00:00 27,0 23,0 11 6 OZO - 10 -
10.08.2018 23:00:00 27,3 23,3 11 6 ZO 1020,8 10 0,0
10.08.2018 22:00:00 28,0 23,0 11 6 ZZO - 10 -
10.08.2018 21:00:00 28,0 23,0 11 6 ZZO - 10 -
10.08.2018 20:00:00 28,2 22,9 15 8 ZO 1019,8 10 -
10.08.2018 19:00:00 29,0 23,0 18 10 ZO - 10 -
10.08.2018 18:00:00 30,0 23,0 22 12 ZO - 10 -
10.08.2018 17:00:00 30,0 22,7 24 13 ZO 1019,4 10 0,0
10.08.2018 16:00:00 31,0 21,0 21 11 ZZO - 10 -
10.08.2018 15:00:00 31,0 23,0 16 9 Z - 10 -
10.08.2018 14:00:00 32,0 21,3 13 7 Z 1020,0 10 -
10.08.2018 13:00:00 32,0 22,0 9 5 Z - 10 -
10.08.2018 12:00:00 31,0 22,0 8 4 Z - 10 -
10.08.2018 11:00:00 29,2 22,1 5 3 ZW 1020,6 10 0,0
10.08.2018 10:00:00 28,0 23,0 5 3 WZW - 10 -
10.08.2018 09:00:00 26,0 22,0 9 5 N - 10 -
10.08.2018 08:00:00 24,5 21,9 5 3 NW 1019,5 10 -
10.08.2018 07:00:00 23,0 21,0 2 1 - - 10 -
10.08.2018 06:00:00 24,0 21,0 4 2 NW - 10 -
10.08.2018 05:00:00 23,4 21,5 4 2 NNO 1018,3 10 0,0
10.08.2018 04:00:00 24,0 22,0 9 5 NW - 10 -
10.08.2018 03:00:00 25,0 22,0 5 3 NW - 10 -
10.08.2018 02:00:00 25,2 22,3 9 5 NW 1018,9 10 -
10.08.2018 01:00:00 25,0 23,0 5 3 NNW - 10 -
10.08.2018 00:00:00 26,0 23,0 5 3 NNW - 10 -
09.08.2018 23:00:00 26,3 22,8 9 5 N 1018,3 10 0,0
09.08.2018 22:00:00 27,0 23,0 9 5 ZZO - 10 -
09.08.2018 21:00:00 27,0 23,0 11 6 ZZO - 10 -
09.08.2018 20:00:00 27,5 22,7 15 8 Z 1016,7 10 -
09.08.2018 19:00:00 28,0 22,0 16 9 Z - 10 -
09.08.2018 18:00:00 29,0 22,0 16 9 Z - 10 -
09.08.2018 17:00:00 29,3 21,3 18 10 ZZO 1016,0 10 0,0
09.08.2018 16:00:00 30,0 21,0 22 12 ZZO - 10 -
09.08.2018 15:00:00 30,0 22,0 21 11 ZZO - 10 -
09.08.2018 14:00:00 30,4 22,0 18 10 ZZO 1016,8 10 -
09.08.2018 13:00:00 30,0 21,0 15 8 Z - 10 -
09.08.2018 12:00:00 - - - - - - - -
09.08.2018 11:00:00 29,5 21,2 5 3 Z 1016,6 10 0,0
09.08.2018 10:00:00 27,0 21,0 5 3 WZW - 10 -
09.08.2018 09:00:00 25,0 21,0 5 3 NNW - 10 -
09.08.2018 08:00:00 22,9 20,5 5 3 NW 1016,6 10 -
09.08.2018 07:00:00 22,0 20,0 9 5 N - 10 -
09.08.2018 06:00:00 22,0 21,0 5 3 NW - 10 -
09.08.2018 05:00:00 22,7 20,6 8 4 NNW 1015,5 10 0,0
09.08.2018 04:00:00 - - - - - - - -
09.08.2018 03:00:00 24,0 20,0 4 2 ONO - 10 -
09.08.2018 02:00:00 25,0 20,7 2 1 - 1015,7 10 -
09.08.2018 01:00:00 26,0 22,0 5 3 ZZW - 10 -
09.08.2018 00:00:00 26,0 21,0 8 4 ZZO - 10 -
08.08.2018 23:00:00 26,2 21,3 9 5 ZZO 1016,0 10 0,0
08.08.2018 22:00:00 27,0 21,0 13 7 ZZO - 10 -
08.08.2018 21:00:00 27,0 21,0 16 9 ZZO - 10 -
08.08.2018 20:00:00 27,1 21,2 16 9 ZZO 1014,9 10 -
08.08.2018 19:00:00 28,0 21,0 15 8 Z - 10 -
08.08.2018 18:00:00 29,0 21,0 16 9 Z - 10 -
08.08.2018 17:00:00 29,1 21,1 13 7 Z 1014,5 10 0,0
08.08.2018 16:00:00 29,0 21,0 15 8 Z - 10 -
08.08.2018 15:00:00 30,0 20,0 18 10 ZZO - 10 -

tt = temperatuur
td = dauwpunt
ff = windsnelheid
dd = windrichting
ppp = luchtdruk
vv = zicht
rr = neerslag

Weerstations in de omgeving